Temperature
0 1 1 1 1 1 1 1 2 2 2 3 2 1 1 1 1 1 1 2 2 2 2 2 2 2 2 3 3 3 3 3 3 3 3 3 3 3 3 3 3 3 3 3
1 1 1 1 1 1 1 1 1 1 2 2 1 1 1 1 1 1 1 1 1 1 1 2 2 2 2 2 2 2 2 2 2 2 2 2 2 2 2 2 2 2 2 2
0 0 1 1 1 1 1 0 1 2 2 1 0 0 0 1 1 1 1 1 1 1 1 1 1 1 1 2 2 2 2 2 2 2 2 2 2 2 2 2 2 2 2 2
-1 0 1 3 1 1 1 1 0 1 1 -0 0 1 1 1 1 1 1 1 1 1 1 1 1 1 1 1 1 1 2 2 2 2 2 2 2 1 1 1 1 1 1 1
-1 -1 1 1 1 0 0 1 0 0 0 -0 -0 -0 1 2 1 1 1 1 1 1 1 1 1 1 1 1 1 1 1 1 1 1 1 1 1 1 1 1 1 1 1 1
-2 -0 1 2 1 1 1 1 1 0 -0 -1 -1 -1 0 1 1 0 0 0 0 0 1 1 1 1 1 1 1 1 1 1 1 1 1 1 1 1 1 0 0 0 0 0
-2 -1 -0 1 0 1 1 2 1 1 1 -0 -1 0 1 1 1 0 -0 -0 -0 0 0 0 0 0 0 1 1 0 0 0 1 1 1 0 0 0 0 -0 -0 -0 -0 -0
-3 -1 0 -0 -1 -0 1 1 1 1 1 0 0 1 1 0 0 -0 -0 -1 -1 -0 -0 -0 -0 -0 -0 0 0 0 0 0 0 0 0 -0 -0 -0 -0 -1 -1 -1 -1 -1
-1 0 0 0 0 1 1 1 1 1 1 1 0 0 0 -0 -0 -1 -1 -1 -1 -1 -1 -1 -1 -1 -1 -0 -0 -0 -0 -0 -0 -0 -0 -1 -1 -1 -1 -1 -1 -2 -2 -2
-3 -2 -1 0 1 1 1 1 1 1 1 0 0 -0 -0 -1 -1 -1 -1 -1 -1 -1 -1 -1 -1 -1 -1 -1 -1 -1 -1 -1 -1 -1 -1 -1 -1 -2 -2 -2 -2 -2 -2 -2
-3 -2 -1 0 1 2 1 1 1 1 1 0 -0 -0 -0 -1 -1 -1 -1 -2 -2 -2 -2 -2 -2 -2 -2 -2 -2 -1 -1 -1 -1 -1 -2 -2 -2 -2 -2 -2 -3 -3 -3 -3
-1 -0 -1 1 2 2 1 1 1 0 0 -0 -1 -1 -1 -1 -1 -2 -2 -2 -2 -2 -2 -2 -2 -2 -2 -2 -2 -2 -2 -2 -2 -2 -2 -2 -3 -3 -3 -3 -3 -3 -3 -3
1 2 1 2 2 1 1 1 1 0 -0 -0 -1 -1 -1 -1 -2 -2 -2 -2 -3 -3 -3 -3 -3 -2 -2 -2 -2 -2 -2 -2 -3 -3 -3 -3 -3 -3 -3 -3 -3 -4 -4 -4
1 1 1 1 1 1 1 1 0 -0 -1 -1 -1 -1 -2 -2 -2 -2 -3 -3 -3 -3 -3 -3 -3 -3 -3 -3 -3 -3 -3 -3 -3 -3 -4 -4 -4 -4 -4 -4 -4 -4 -4 -4
1 1 1 1 1 1 0 0 -0 -0 -1 -1 -1 -2 -2 -2 -3 -3 -3 -3 -3 -3 -3 -3 -3 -3 -3 -3 -3 -3 -3 -4 -4 -4 -4 -4 -4 -4 -4 -4 -4 -4 -4 -4
1 1 1 0 1 0 0 -0 -0 -1 -1 -2 -2 -2 -2 -3 -3 -3 -3 -3 -3 -3 -3 -4 -4 -4 -4 -4 -4 -4 -4 -4 -4 -4 -4 -5 -5 -5 -5 -5 -5 -5 -5 -5
0 -0 -0 -0 0 0 -0 -0 -1 -1 -1 -2 -2 -2 -3 -3 -3 -3 -3 -4 -4 -4 -4 -4 -4 -4 -4 -4 -4 -4 -4 -4 -5 -5 -5 -5 -5 -5 -5 -5 -5 -5 -5 -5
1 1 1 1 0 -0 -0 -1 -1 -1 -2 -2 -2 -3 -3 -3 -4 -4 -4 -4 -4 -4 -4 -4 -5 -5 -5 -5 -5 -5 -5 -5 -5 -5 -5 -5 -5 -5 -5 -5 -6 -6 -6 -6
1 0 0 0 -0 -0 -1 -1 -1 -2 -2 -2 -3 -3 -3 -4 -4 -4 -4 -5 -4 -4 -5 -5 -5 -5 -5 -5 -5 -5 -5 -5 -5 -5 -5 -6 -6 -6 -6 -6 -6 -6 -6 -6
0 -0 -0 -0 -1 -1 -1 -1 -2 -2 -2 -3 -3 -3 -4 -4 -4 -5 -5 -5 -5 -5 -5 -5 -5 -5 -5 -5 -5 -6 -6 -6 -6 -6 -6 -6 -6 -6 -6 -6 -6 -6 -7 -7
-0 -1 -1 -1 -1 -1 -2 -2 -2 -2 -3 -3 -3 -4 -4 -4 -5 -5 -5 -5 -5 -5 -5 -5 -5 -6 -6 -6 -6 -6 -6 -6 -6 -6 -6 -6 -6 -6 -6 -7 -7 -7 -7 -7
-1 -1 -1 -1 -2 -2 -2 -2 -3 -3 -3 -4 -4 -4 -4 -5 -5 -5 -5 -5 -5 -6 -6 -6 -6 -6 -6 -6 -6 -6 -6 -6 -6 -6 -7 -6 -7 -7 -7 -7 -7 -7 -7 -7
-1 -1 -2 -2 -2 -2 -3 -3 -3 -3 -4 -4 -4 -4 -5 -5 -5 -5 -6 -6 -6 -6 -6 -6 -6 -6 -6 -7 -6 -6 -7 -7 -7 -7 -7 -7 -7 -7 -7 -7 -7 -8 -8 -8
-2 -2 -2 -2 -3 -3 -3 -3 -4 -4 -4 -4 -4 -5 -5 -5 -5 -6 -6 -6 -6 -6 -6 -6 -7 -7 -7 -7 -7 -7 -7 -7 -7 -7 -7 -7 -8 -8 -8 -8 -8 -8 -8 -8
-2 -2 -3 -3 -3 -3 -4 -4 -4 -4 -4 -5 -5 -5 -5 -5 -6 -6 -6 -6 -6 -6 -6 -7 -7 -7 -7 -7 -7 -7 -7 -7 -7 -8 -8 -8 -8 -8 -8 -8 -8 -8 -8 -8
-3 -3 -3 -3 -3 -4 -4 -4 -4 -4 -5 -5 -5 -5 -5 -6 -6 -6 -6 -6 -6 -7 -7 -7 -7 -7 -7 -8 -8 -8 -8 -8 -8 -8 -8 -8 -8 -8 -8 -8 -8 -8 -9 -9
-3 -3 -3 -4 -4 -4 -4 -4 -5 -5 -5 -5 -5 -6 -6 -6 -6 -6 -6 -7 -7 -7 -7 -7 -8 -8 -8 -8 -8 -8 -8 -8 -8 -8 -9 -9 -9 -9 -9 -9 -9 -9 -9 -9
Wind_Speed
5 5 4 6 6 6 7 8 8 8 9 11 7 6 6 6 6 5 5 5 5 5 5 5 5 5 5 5 5 3 2 1 1 1 0 1 0 0 1 1 1 1 0 0
4 4 4 6 8 8 8 7 9 9 11 8 4 4 5 6 6 6 6 6 6 6 6 5 5 5 5 5 5 3 2 1 1 1 1 0 0 1 1 0 0 1 0 0
4 5 4 7 8 9 6 6 7 9 9 4 4 6 6 6 6 6 6 6 6 6 5 5 5 5 5 5 4 3 2 1 1 1 1 1 1 1 1 0 0 0 0 0
1 3 5 7 2 5 7 8 8 8 6 5 6 7 6 5 5 5 6 6 6 5 6 6 5 5 4 4 3 3 2 2 1 1 0 0 1 0 0 0 0 0 1 0
1 3 9 8 3 4 5 7 7 8 7 4 3 4 5 4 3 5 5 5 5 5 5 5 5 4 3 3 3 2 2 2 2 1 0 0 0 0 0 0 0 0 0 0
2 3 7 6 2 2 2 6 5 5 5 3 0 3 6 4 3 4 4 4 4 4 4 4 5 4 2 2 2 3 3 3 2 1 1 1 1 0 0 0 0 1 1 1
4 6 9 6 2 3 2 7 4 4 4 4 5 5 5 4 4 3 3 4 3 3 4 4 4 3 2 2 2 3 3 2 2 1 1 1 0 1 1 1 1 1 1 1
5 5 9 3 5 6 7 4 3 3 4 4 4 4 4 3 3 3 3 3 3 3 4 4 4 2 2 3 3 3 2 2 2 1 1 0 1 1 1 1 2 1 1 2
9 9 5 5 6 5 3 4 4 4 4 3 3 4 4 3 3 3 3 3 2 2 4 5 4 2 2 3 3 2 2 2 2 2 1 1 1 1 1 1 1 1 1 1
6 10 8 8 7 6 5 5 5 4 4 3 4 4 4 4 3 3 3 2 2 2 3 4 5 4 2 3 2 2 2 2 2 2 2 2 1 1 1 1 0 0 0 0
8 8 7 7 8 7 5 5 4 4 3 3 3 4 4 4 4 3 3 2 1 2 3 4 4 4 3 2 2 2 1 1 1 1 1 1 2 1 1 0 1 1 1 0
9 7 6 7 5 5 5 5 5 3 3 3 3 4 3 4 3 3 2 2 2 2 3 3 3 4 4 2 1 1 1 1 1 1 1 1 1 2 3 2 3 3 3 2
7 4 5 6 4 4 5 5 4 4 4 3 3 3 3 3 3 2 2 2 3 3 3 3 3 3 3 2 1 1 1 1 1 1 1 1 0 0 1 2 4 4 4 4
6 3 4 5 5 4 4 3 2 2 2 2 2 2 2 2 2 2 3 3 3 2 3 2 3 3 3 2 1 1 1 1 1 0 0 0 0 0 0 1 2 2 3 4
8 7 6 4 3 2 2 1 1 2 2 1 1 2 2 2 3 3 3 2 2 2 2 2 3 4 3 1 1 1 1 1 1 0 0 0 0 0 0 0 0 1 1 2
5 5 5 4 5 4 3 3 4 4 3 2 2 2 2 2 2 2 2 1 1 2 3 3 3 3 2 1 1 1 1 1 1 0 0 0 0 0 0 0 0 1 1 1
5 6 6 6 6 6 5 5 5 4 3 3 3 2 1 1 1 2 2 2 2 3 3 2 2 2 1 1 0 1 1 1 1 1 0 0 0 1 1 1 1 1 1 2
9 9 8 7 7 6 5 4 4 4 4 4 2 1 2 2 3 3 3 2 2 3 3 2 2 1 1 1 0 0 0 1 1 1 1 1 1 1 1 1 1 1 1 2
8 8 7 7 6 5 5 5 4 3 3 2 2 3 3 3 3 2 2 1 2 3 3 2 2 1 1 1 1 0 1 1 1 1 1 1 1 1 1 1 1 2 2 2
5 4 4 4 4 4 4 4 3 3 3 3 2 2 2 2 2 2 2 2 3 3 3 2 2 1 1 2 1 1 1 1 1 1 1 1 1 1 1 2 2 2 2 2
4 4 4 4 3 3 4 4 4 3 3 3 3 3 3 2 2 1 1 3 3 2 2 3 1 1 1 2 2 1 1 1 1 1 1 1 1 2 2 2 2 2 2 2
4 4 4 4 3 2 2 3 3 3 3 3 3 2 2 2 2 2 3 3 3 3 2 2 2 2 3 2 1 1 2 2 1 1 1 2 2 2 2 2 2 3 2 2
3 3 4 3 3 3 1 2 3 4 4 4 3 3 3 3 2 2 3 2 2 3 2 2 3 4 4 1 1 2 2 2 2 2 2 2 2 2 2 3 3 3 3 2
3 3 3 3 3 3 2 2 2 2 2 3 3 3 3 2 2 2 2 3 3 3 2 3 5 4 3 0 1 1 2 2 2 2 2 2 2 2 3 3 3 3 3 3
3 3 3 4 4 3 3 2 1 1 1 1 2 2 2 2 2 2 1 2 3 3 2 3 4 3 1 1 1 2 2 2 3 2 2 3 3 3 3 3 3 3 3 3
3 3 3 4 3 3 3 3 2 2 2 2 2 1 1 1 1 1 1 2 2 2 2 2 2 2 1 1 2 2 2 3 3 3 3 3 3 3 3 3 4 3 3 3
3 2 2 2 2 3 3 3 3 3 3 3 2 2 1 1 1 1 1 1 1 1 1 1 1 1 1 1 2 2 2 2 2 3 3 3 3 3 3 4 3 3 3 3
Wind_Direction
257 272 248 243 245 219 213 216 224 251 258 272 278 282 291 300 308 315 319 321 321 322 324 329 331 327 329 327 328 339 350 332 298 321 49 56 46 116 132 145 169 170 148 324
296 296 266 268 260 238 235 237 242 265 273 273 279 289 296 297 299 301 306 310 315 321 323 323 322 320 324 321 322 335 329 294 316 11 44 72 68 63 77 97 97 92 174 252
282 312 328 278 245 217 220 219 210 239 257 283 291 282 279 280 282 280 295 306 310 310 309 311 310 310 311 312 320 330 327 319 331 354 13 357 39 62 65 81 111 101 290 226
301 3 261 250 223 203 221 240 227 245 259 258 265 280 278 264 260 277 292 297 301 305 310 313 313 314 317 323 328 332 336 336 328 330 310 29 63 60 3 97 139 220 268 263
159 263 278 288 256 191 210 266 234 238 262 281 306 321 292 260 257 266 273 284 290 296 303 310 313 313 324 327 333 332 333 328 315 288 271 154 208 270 278 69 7 307 305 288
162 223 256 264 259 202 124 286 257 219 243 256 52 310 288 295 289 289 297 304 309 315 320 319 317 323 334 326 335 326 318 313 313 288 219 232 247 283 22 59 283 342 3 5
201 235 264 258 218 119 171 265 290 229 232 214 215 241 276 297 300 296 304 312 322 327 324 317 321 334 338 331 313 313 324 332 338 335 292 241 115 60 44 38 34 20 359 7
177 221 257 207 139 188 232 281 279 258 248 238 256 281 293 295 295 307 320 326 332 341 334 331 336 347 338 318 315 334 352 357 349 347 340 43 95 84 78 78 58 16 12 21
201 222 259 198 213 238 241 259 262 259 266 247 266 277 288 289 288 292 297 308 323 333 333 336 342 348 325 317 339 0 22 5 354 355 0 44 99 105 90 93 88 347 11 22
252 261 258 254 253 255 249 253 263 259 256 234 253 269 281 282 284 290 295 302 324 339 332 327 333 339 323 326 350 26 27 13 17 31 28 40 56 72 86 97 120 303 346 10
252 270 287 268 241 244 255 261 269 272 254 235 235 260 263 270 275 279 293 301 293 286 296 306 324 329 330 341 11 28 23 28 24 25 42 49 38 25 18 325 243 268 273 242
232 234 218 257 251 227 229 248 251 253 269 261 231 247 259 268 271 274 281 290 298 299 299 306 318 319 324 341 10 32 15 13 11 11 25 51 56 25 17 10 3 357 351 353
234 240 233 263 261 228 223 238 240 236 239 259 255 238 241 263 265 271 277 273 276 281 289 299 309 313 320 334 349 0 325 328 345 359 19 25 33 44 5 10 16 14 7 1
233 226 250 246 247 234 225 233 235 246 243 235 235 238 242 264 272 273 276 279 283 288 292 297 303 303 315 324 319 320 328 318 334 314 318 296 278 308 323 7 7 5 8 9
228 222 229 240 237 229 214 205 242 265 267 267 229 219 237 256 265 275 291 306 311 306 303 306 304 304 319 318 306 294 291 307 322 324 327 305 316 17 16 13 331 343 0 1
221 224 225 225 230 229 219 218 227 243 246 254 255 253 253 256 267 281 298 315 301 295 295 295 292 300 314 312 317 317 297 295 331 332 335 330 327 275 277 262 271 307 318 324
190 217 219 225 230 231 222 221 222 228 233 242 248 252 263 285 299 299 307 311 290 281 282 277 287 314 324 307 273 275 294 288 303 346 317 280 259 235 230 225 237 268 283 297
213 218 214 214 217 222 226 224 221 219 225 233 233 220 231 239 259 280 299 318 326 319 305 296 304 328 326 317 280 261 266 279 268 260 272 270 268 240 228 233 239 253 278 297
217 217 218 217 214 211 215 217 217 217 218 203 205 223 237 243 249 270 294 307 305 303 305 304 305 337 305 279 290 236 236 255 281 283 269 271 289 272 256 248 247 252 265 274
217 214 213 213 204 199 206 204 195 203 208 193 200 220 243 255 253 263 274 271 261 262 276 292 302 292 270 257 252 219 218 227 240 250 251 251 252 260 263 260 254 255 257 258
208 204 200 199 205 205 197 185 182 199 208 194 202 220 235 251 247 240 255 284 290 285 282 287 294 267 252 256 246 211 222 233 236 242 247 253 256 260 264 266 263 262 262 263
201 198 201 193 190 205 199 180 181 190 197 207 216 216 223 243 249 261 254 249 270 294 305 285 278 268 268 267 225 214 232 238 241 246 250 256 259 262 263 266 265 265 264 264
199 196 193 190 187 187 184 189 190 189 198 207 212 215 223 234 225 232 274 271 269 284 297 277 283 283 281 261 215 223 232 237 240 244 251 256 258 260 262 266 266 264 263 266
190 184 180 165 149 159 202 225 208 202 205 218 220 213 208 226 257 247 246 268 282 289 284 282 290 289 289 273 233 235 237 243 248 252 254 256 254 256 259 262 265 264 263 265
179 174 168 165 177 198 205 198 180 194 198 223 240 232 220 210 222 247 249 253 266 286 294 286 290 299 309 268 244 246 251 252 254 252 247 253 256 256 259 263 262 261 261 264
183 187 191 192 193 192 186 179 189 203 198 225 258 248 234 221 218 231 240 250 259 281 294 297 298 300 302 272 258 258 259 270 277 273 263 260 261 261 263 263 263 262 262 260
174 175 173 185 198 191 186 185 195 207 203 205 233 237 224 214 214 228 237 252 266 280 287 293 295 292 286 278 272 267 266 265 263 262 261 259 258 258 261 262 262 261 262 261
Height
1515 1512 1511 1510 1509 1509 1510 1507 1506 1498 1496 1488 1487 1486 1484 1482 1480 1478 1476 1474 1473 1471 1469 1468 1467 1466 1465 1463 1462 1461 1460 1460 1460 1459 1459 1460 1460 1460 1461 1461 1462 1462 1462 1462
1513 1510 1509 1508 1505 1505 1504 1502 1500 1496 1492 1485 1484 1484 1482 1480 1478 1476 1474 1472 1471 1469 1467 1466 1465 1464 1463 1462 1461 1460 1459 1459 1459 1458 1458 1459 1459 1459 1459 1460 1460 1460 1460 1460
1515 1513 1507 1504 1498 1498 1498 1496 1495 1492 1486 1484 1483 1481 1479 1478 1476 1475 1473 1471 1469 1468 1466 1465 1464 1463 1462 1461 1460 1459 1458 1458 1457 1457 1457 1457 1458 1458 1458 1458 1458 1458 1458 1459
1519 1515 1511 1493 1490 1490 1491 1489 1488 1485 1482 1481 1480 1478 1477 1476 1475 1473 1471 1469 1467 1466 1464 1464 1462 1461 1460 1459 1458 1457 1457 1456 1456 1456 1455 1456 1456 1456 1457 1457 1457 1457 1457 1457
1522 1518 1505 1492 1488 1488 1489 1485 1481 1481 1479 1479 1478 1476 1474 1473 1472 1471 1469 1468 1466 1464 1463 1462 1460 1459 1458 1457 1456 1456 1455 1455 1454 1454 1454 1454 1454 1455 1455 1455 1455 1455 1455 1455
1521 1514 1503 1487 1485 1484 1487 1485 1476 1476 1476 1477 1477 1478 1472 1470 1469 1468 1467 1466 1464 1462 1461 1460 1459 1458 1456 1455 1455 1454 1454 1453 1453 1453 1453 1453 1453 1453 1453 1453 1453 1453 1453 1453
1517 1514 1498 1485 1484 1485 1490 1482 1474 1473 1473 1473 1474 1473 1470 1468 1467 1466 1464 1463 1461 1460 1459 1458 1457 1456 1455 1454 1453 1453 1453 1452 1452 1451 1451 1451 1451 1451 1451 1451 1451 1451 1452 1452
1514 1510 1495 1482 1483 1484 1479 1474 1473 1471 1471 1470 1469 1468 1467 1466 1464 1463 1462 1461 1460 1458 1457 1457 1456 1455 1453 1453 1453 1452 1451 1451 1450 1450 1450 1450 1450 1450 1450 1450 1450 1450 1450 1450
1495 1488 1479 1477 1476 1475 1474 1473 1471 1470 1469 1468 1467 1466 1464 1463 1462 1461 1460 1459 1458 1457 1456 1455 1454 1453 1452 1452 1451 1451 1450 1449 1449 1449 1449 1448 1448 1448 1448 1448 1448 1448 1449 1449
1489 1478 1475 1473 1472 1472 1471 1470 1469 1468 1467 1466 1465 1463 1462 1461 1460 1459 1458 1457 1456 1455 1454 1454 1453 1452 1451 1451 1450 1449 1448 1448 1447 1447 1447 1447 1447 1447 1447 1447 1447 1447 1447 1447
1482 1474 1471 1468 1467 1468 1468 1467 1466 1465 1464 1463 1462 1461 1460 1459 1458 1457 1456 1456 1455 1454 1453 1452 1451 1450 1450 1449 1448 1447 1447 1447 1446 1446 1445 1445 1445 1446 1446 1446 1446 1446 1446 1446
1472 1466 1467 1464 1463 1464 1464 1463 1463 1462 1461 1460 1460 1459 1458 1457 1456 1455 1454 1453 1453 1452 1451 1450 1449 1449 1448 1447 1446 1446 1445 1445 1445 1444 1444 1444 1443 1444 1444 1444 1445 1445 1445 1445
1462 1462 1462 1461 1460 1461 1461 1460 1460 1459 1458 1457 1457 1457 1456 1454 1454 1453 1452 1451 1450 1450 1449 1448 1447 1446 1446 1445 1445 1444 1444 1443 1443 1443 1442 1442 1442 1442 1442 1443 1443 1443 1443 1443
1458 1459 1458 1457 1457 1457 1457 1457 1457 1456 1455 1455 1454 1454 1453 1452 1451 1450 1450 1449 1448 1448 1447 1446 1445 1444 1444 1443 1443 1442 1442 1442 1441 1441 1441 1441 1441 1441 1440 1440 1440 1441 1442 1442
1454 1455 1454 1454 1454 1454 1454 1454 1453 1453 1452 1452 1451 1451 1450 1449 1449 1448 1448 1447 1446 1445 1444 1443 1443 1442 1442 1441 1441 1440 1440 1440 1439 1439 1439 1439 1439 1439 1439 1439 1439 1439 1439 1440
1449 1450 1450 1450 1450 1450 1450 1450 1450 1449 1449 1449 1448 1448 1447 1447 1446 1445 1445 1444 1443 1442 1441 1441 1440 1440 1440 1439 1439 1439 1438 1438 1438 1438 1438 1437 1437 1437 1437 1437 1437 1437 1437 1437
1445 1445 1445 1445 1446 1446 1446 1446 1446 1446 1446 1446 1445 1445 1444 1444 1443 1442 1442 1441 1441 1440 1439 1439 1438 1438 1437 1437 1437 1436 1436 1436 1436 1436 1436 1435 1435 1435 1435 1435 1435 1435 1435 1436
1440 1440 1441 1441 1442 1442 1443 1443 1443 1443 1443 1443 1443 1442 1441 1441 1440 1439 1439 1438 1438 1438 1437 1437 1436 1435 1435 1435 1435 1435 1434 1434 1434 1434 1434 1433 1433 1433 1433 1433 1433 1433 1433 1433
1434 1436 1437 1437 1438 1439 1440 1440 1440 1440 1440 1440 1440 1439 1439 1438 1438 1437 1437 1436 1435 1435 1435 1435 1434 1434 1433 1433 1433 1433 1433 1433 1432 1432 1432 1432 1432 1431 1431 1431 1431 1431 1431 1431
1431 1432 1433 1434 1435 1435 1436 1436 1437 1437 1437 1437 1437 1437 1436 1436 1436 1435 1435 1434 1434 1434 1433 1433 1432 1432 1432 1431 1431 1431 1431 1431 1430 1430 1430 1430 1430 1429 1429 1429 1429 1429 1429 1429
1427 1428 1429 1430 1431 1432 1433 1433 1434 1434 1434 1434 1434 1434 1433 1433 1433 1433 1432 1432 1432 1432 1431 1431 1430 1430 1429 1429 1429 1429 1429 1428 1428 1428 1428 1428 1428 1427 1427 1427 1427 1427 1426 1426
1424 1425 1426 1427 1428 1428 1429 1430 1431 1431 1431 1431 1432 1431 1431 1431 1431 1430 1430 1430 1430 1429 1429 1428 1428 1427 1427 1427 1427 1426 1426 1426 1426 1425 1425 1425 1425 1425 1425 1425 1424 1424 1424 1424
1422 1423 1423 1424 1425 1425 1426 1427 1428 1428 1428 1429 1429 1429 1429 1429 1428 1428 1428 1428 1427 1427 1426 1426 1426 1425 1425 1424 1424 1424 1423 1423 1423 1423 1423 1422 1422 1422 1422 1422 1422 1421 1421 1421
1419 1420 1421 1422 1422 1423 1423 1424 1425 1426 1426 1426 1427 1427 1427 1426 1426 1426 1426 1426 1425 1425 1424 1424 1423 1423 1422 1422 1421 1421 1421 1420 1420 1420 1420 1419 1419 1419 1419 1419 1419 1419 1418 1418
1416 1417 1418 1418 1419 1420 1421 1421 1422 1423 1423 1424 1424 1424 1424 1424 1424 1424 1423 1423 1423 1422 1421 1421 1421 1420 1419 1419 1418 1418 1418 1417 1417 1417 1416 1416 1416 1416 1416 1416 1415 1415 1415 1415
1413 1414 1415 1416 1416 1417 1418 1418 1419 1419 1420 1420 1421 1421 1421 1422 1421 1421 1421 1420 1420 1419 1419 1418 1418 1417 1416 1416 1415 1415 1415 1414 1414 1414 1413 1413 1413 1413 1412 1412 1412 1412 1411 1411
1410 1411 1412 1412 1413 1414 1414 1415 1416 1416 1417 1417 1418 1418 1418 1419 1419 1418 1418 1418 1417 1417 1416 1415 1415 1414 1414 1413 1412 1412 1411 1411 1411 1410 1410 1410 1410 1409 1409 1409 1408 1408 1408 1408